• In Russia
  • List of Countries
  • For 7 days
  • Water Temperature
  • Satellite Maps
  • Weather Map
  • Weather Widgets
  • user-avatar
    Login

    Hourly Weather Hrazdan

    Today, 11 December, Tuesday

    Time Temperature Precipitation Wind Pressure Humidity
    00:00 -2°C° 0 mm 3 mps 610 mmHg 75%
    01:00 -2°C° 0 mm 3 mps 610 mmHg 76%
    02:00 -2°C° 0 mm 3 mps 610 mmHg 76%
    03:00 -2°C° 0 mm 3 mps 609 mmHg 78%
    04:00 -2°C° 0 mm 3 mps 609 mmHg 77%
    05:00 -2°C° 0 mm 3 mps 609 mmHg 77%
    06:00 -2°C° 0 mm 3 mps 609 mmHg 77%
    07:00 -1°C° 0 mm 3 mps 610 mmHg 74%
    08:00 0°C° 0 mm 3 mps 610 mmHg 71%
    09:00 +1°C° 0 mm 3 mps 610 mmHg 67%
    10:00 +1°C° 0 mm 3 mps 610 mmHg 65%
    11:00 +2°C° 0 mm 3 mps 610 mmHg 62%
    12:00 +3°C° 0 mm 4 mps 610 mmHg 60%
    13:00 +3°C° 0 mm 3 mps 609 mmHg 60%
    14:00 +3°C° 0 mm 3 mps 609 mmHg 61%
    15:00 +3°C° 0 mm 3 mps 609 mmHg 62%
    16:00 +2°C° 0 mm 3 mps 608 mmHg 66%
    17:00 +1°C° 0 mm 3 mps 608 mmHg 70%
    18:00 0°C° 0 mm 3 mps 608 mmHg 73%
    19:00 0°C° 0.1 mm 3 mps 608 mmHg 74%
    20:00 0°C° 0.1 mm 3 mps 608 mmHg 74%
    21:00 0°C° 0.1 mm 3 mps 609 mmHg 75%
    22:00 0°C° 0.5 mm 3 mps 609 mmHg 77%
    23:00 +1°C° 0.5 mm 2 mps 609 mmHg 79%

    Tomorrow, 12 December, Wednesday

    Time Temperature Precipitation Wind Pressure Humidity
    00:00 +1°C° 0.5 mm 2 mps 609 mmHg 81%
    01:00 +1°C° 0.6 mm 2 mps 609 mmHg 82%
    02:00 +1°C° 0.6 mm 2 mps 609 mmHg 83%
    03:00 +1°C° 0.6 mm 2 mps 609 mmHg 84%
    04:00 +1°C° 0.4 mm 2 mps 609 mmHg 84%
    05:00 +1°C° 0.4 mm 2 mps 609 mmHg 85%
    06:00 -1°C° 0.4 mm 2 mps 609 mmHg 85%
    07:00 0°C° 0.2 mm 3 mps 609 mmHg 83%
    08:00 0°C° 0.2 mm 3 mps 608 mmHg 82%
    09:00 +1°C° 0.2 mm 3 mps 608 mmHg 80%
    10:00 0°C° 0.2 mm 4 mps 608 mmHg 77%
    11:00 +1°C° 0.2 mm 5 mps 607 mmHg 74%
    12:00 +2°C° 0.2 mm 6 mps 607 mmHg 71%
    13:00 +2°C° 0.6 mm 5 mps 606 mmHg 71%
    14:00 +2°C° 0.6 mm 5 mps 606 mmHg 71%
    15:00 +2°C° 0.6 mm 5 mps 606 mmHg 72%
    16:00 +1°C° 1.1 mm 4 mps 606 mmHg 75%
    17:00 +1°C° 1.1 mm 4 mps 606 mmHg 78%
    18:00 +1°C° 1.1 mm 3 mps 606 mmHg 81%
    19:00 +1°C° 1 mm 3 mps 606 mmHg 82%
    20:00 +1°C° 1 mm 3 mps 606 mmHg 83%
    21:00 0°C° 1 mm 4 mps 606 mmHg 84%
    22:00 +1°C° 1 mm 3 mps 606 mmHg 85%
    23:00 0°C° 1 mm 3 mps 606 mmHg 86%

    Day after tomorrow, 13 December, Thursday

    Time Temperature Precipitation Wind Pressure Humidity
    00:00 0°C° 1 mm 3 mps 606 mmHg 86%
    01:00 0°C° 1.1 mm 3 mps 606 mmHg 88%
    02:00 0°C° 1.1 mm 3 mps 606 mmHg 89%
    03:00 0°C° 1.1 mm 3 mps 606 mmHg 90%
    04:00 -1°C° 0.4 mm 3 mps 606 mmHg 89%
    05:00 -2°C° 0.4 mm 3 mps 606 mmHg 87%
    06:00 -2°C° 0.4 mm 3 mps 606 mmHg 86%
    07:00 -2°C° 0.1 mm 3 mps 606 mmHg 84%
    08:00 -2°C° 0.1 mm 3 mps 607 mmHg 83%
    09:00 -2°C° 0.1 mm 3 mps 607 mmHg 81%
    10:00 -2°C° 0.1 mm 4 mps 608 mmHg 78%
    11:00 -1°C° 0.1 mm 4 mps 608 mmHg 75%
    12:00 -1°C° 0.1 mm 4 mps 608 mmHg 73%
    13:00 -1°C° 0.1 mm 4 mps 608 mmHg 73%
    14:00 -1°C° 0.1 mm 4 mps 609 mmHg 73%
    15:00 0°C° 0.1 mm 3 mps 609 mmHg 73%
    16:00 -2°C° 0 mm 3 mps 609 mmHg 74%
    17:00 -4°C° 0 mm 3 mps 609 mmHg 75%
    18:00 -4°C° 0 mm 2 mps 610 mmHg 76%
    19:00 -5°C° 0 mm 2 mps 610 mmHg 76%
    20:00 -5°C° 0 mm 2 mps 610 mmHg 75%
    21:00 -6°C° 0 mm 2 mps 611 mmHg 75%
    22:00 -6°C° 0 mm 2 mps 611 mmHg 74%
    23:00 -6°C° 0 mm 2 mps 611 mmHg 74%

    14 December, Friday

    Time Temperature Precipitation Wind Pressure Humidity
    00:00 -7°C° 0 mm 2 mps 611 mmHg 73%
    01:00 -7°C° 0 mm 2 mps 611 mmHg 73%
    02:00 -7°C° 0 mm 2 mps 611 mmHg 73%
    03:00 -7°C° 0 mm 2 mps 612 mmHg 74%
    04:00 -8°C° 0 mm 2 mps 612 mmHg 74%
    05:00 -8°C° 0 mm 2 mps 612 mmHg 74%
    06:00 -8°C° 0 mm 2 mps 612 mmHg 74%
    07:00 -7°C° 0 mm 2 mps 613 mmHg 74%
    08:00 -6°C° 0 mm 2 mps 613 mmHg 74%
    09:00 -6°C° 0 mm 2 mps 614 mmHg 74%
    10:00 -5°C° 0 mm 2 mps 613 mmHg 72%
    11:00 -4°C° 0 mm 2 mps 613 mmHg 71%
    12:00 -3°C° 0 mm 2 mps 613 mmHg 69%
    13:00 -3°C° 0.1 mm 2 mps 613 mmHg 71%
    14:00 -3°C° 0.1 mm 2 mps 613 mmHg 72%
    15:00 -3°C° 0.1 mm 2 mps 613 mmHg 74%
    16:00 -2°C° 0.1 mm 1 mps 613 mmHg 77%
    17:00 -2°C° 0.1 mm 1 mps 613 mmHg 80%
    18:00 -3°C° 0.1 mm 1 mps 613 mmHg 84%
    19:00 -3°C° 0.2 mm 1 mps 613 mmHg 84%
    20:00 -3°C° 0.2 mm 1 mps 613 mmHg 85%
    21:00 -3°C° 0.2 mm 1 mps 613 mmHg 85%
    22:00 -3°C° 0.2 mm 1 mps 613 mmHg 85%
    23:00 -3°C° 0.2 mm 1 mps 613 mmHg 86%

    15 December, Saturday

    Time Temperature Precipitation Wind Pressure Humidity
    00:00 -3°C° 0.2 mm 1 mps 613 mmHg 86%
    01:00 -4°C° 0.1 mm 1 mps 614 mmHg 86%
    02:00 -4°C° 0.1 mm 1 mps 614 mmHg 86%
    03:00 -4°C° 0.1 mm 1 mps 614 mmHg 86%
    04:00 -6°C° 0 mm 1 mps 614 mmHg 85%
    05:00 -6°C° 0 mm 1 mps 614 mmHg 84%
    06:00 -6°C° 0 mm 1 mps 614 mmHg 83%
    07:00 -6°C° 0 mm 1 mps 614 mmHg 82%
    08:00 -4°C° 0 mm 1 mps 615 mmHg 80%
    09:00 -3°C° 0 mm 1 mps 615 mmHg 78%
    10:00 -2°C° 0 mm 1 mps 616 mmHg 76%
    11:00 -1°C° 0 mm 1 mps 616 mmHg 74%
    12:00 -2°C° 0 mm 2 mps 616 mmHg 72%
    13:00 0°C° 0 mm 1 mps 616 mmHg 73%
    14:00 -1°C° 0 mm 1 mps 616 mmHg 73%
    15:00 -1°C° 0 mm 1 mps 615 mmHg 74%
    16:00 -2°C° 0 mm 1 mps 615 mmHg 74%
    17:00 -3°C° 0 mm 1 mps 615 mmHg 74%
    18:00 -6°C° 0 mm 1 mps 615 mmHg 74%
    19:00 -6°C° 0 mm 1 mps 615 mmHg 72%
    20:00 -6°C° 0 mm 1 mps 615 mmHg 70%
    21:00 -6°C° 0 mm 1 mps 616 mmHg 68%
    22:00 -6°C° 0 mm 1 mps 616 mmHg 67%
    23:00 -6°C° 0 mm 1 mps 616 mmHg 67%

    16 December, Sunday

    Time Temperature Precipitation Wind Pressure Humidity
    00:00 -6°C° 0 mm 1 mps 616 mmHg 66%
    01:00 -6°C° 0 mm 1 mps 616 mmHg 66%
    02:00 -6°C° 0 mm 1 mps 615 mmHg 66%
    03:00 -6°C° 0 mm 1 mps 615 mmHg 66%
    04:00 -6°C° 0 mm 1 mps 615 mmHg 66%
    05:00 -4°C° 0 mm 1 mps 615 mmHg 66%
    06:00 -4°C° 0 mm 1 mps 615 mmHg 65%
    07:00 -4°C° 0 mm 1 mps 616 mmHg 65%
    08:00 -3°C° 0 mm 1 mps 616 mmHg 65%
    09:00 -2°C° 0 mm 1 mps 617 mmHg 64%
    10:00 -1°C° 0 mm 1 mps 617 mmHg 64%
    11:00 0°C° 0 mm 1 mps 617 mmHg 63%
    12:00 -1°C° 0 mm 2 mps 617 mmHg 63%
    13:00 -1°C° 0 mm 2 mps 616 mmHg 65%
    14:00 +1°C° 0 mm 1 mps 616 mmHg 66%
    15:00 +1°C° 0 mm 1 mps 616 mmHg 68%
    16:00 0°C° 0 mm 1 mps 616 mmHg 67%
    17:00 -1°C° 0 mm 1 mps 616 mmHg 67%
    18:00 -1°C° 0 mm 1 mps 616 mmHg 66%
    19:00 -2°C° 0 mm 1 mps 615 mmHg 65%
    20:00 -2°C° 0 mm 1 mps 615 mmHg 65%
    21:00 -2°C° 0 mm 1 mps 615 mmHg 64%
    22:00 -2°C° 0 mm 1 mps 615 mmHg 64%
    23:00 -2°C° 0 mm 1 mps 615 mmHg 64%
    Show more